| time (UTC) | temp F | wind direction | speed knots | gust knots | rain 1hr in | rain 24hr in | rain mn in | humidity % | barometer mb |
| 20260504201545 | 71 | 263 | 2.6 | 4.3 | 0.00 | 0.00 | 0.00 | 37 | 1023.6 |
| 20260504201043 | 71 | 275 | 8.7 | 9.6 | 0.00 | 0.00 | 0.00 | 35 | 1024.0 |
| 20260504200539 | 70 | 174 | 1.7 | 1.7 | 0.00 | 0.00 | 0.00 | 38 | 1023.7 |
| 20260504200036 | 70 | 227 | 4.3 | 6.1 | 0.00 | 0.00 | 0.00 | 38 | 1024.0 |
| 20260504195532 | 70 | 214 | 2.6 | 4.3 | 0.00 | 0.00 | 0.00 | 36 | 1024.0 |
| 20260504195029 | 71 | 289 | 7.8 | 7.8 | 0.00 | 0.00 | 0.00 | 37 | 1024.3 |
| 20260504194525 | 71 | 294 | 2.6 | 4.3 | 0.00 | 0.00 | 0.00 | 38 | 1024.0 |
| 20260504194021 | 70 | 262 | 3.5 | 5.2 | 0.00 | 0.00 | 0.00 | 40 | 1024.3 |
| 20260504193518 | 70 | 266 | 5.2 | 9.6 | 0.00 | 0.00 | 0.00 | 39 | 1024.1 |
| 20260504193017 | 71 | 266 | 4.3 | 7.0 | 0.00 | 0.00 | 0.00 | 39 | 1024.4 |
| 20260504192514 | 70 | 227 | 3.5 | 4.3 | 0.00 | 0.00 | 0.00 | 41 | 1024.3 |
| 20260504192013 | 70 | 252 | 7.0 | 8.7 | 0.00 | 0.00 | 0.00 | 41 | 1024.7 |
| 20260504191510 | 70 | 202 | 4.3 | 5.2 | 0.00 | 0.00 | 0.00 | 41 | 1024.3 |
| 20260504191006 | 69 | 166 | 1.7 | 1.7 | 0.00 | 0.00 | 0.00 | 44 | 1024.8 |
| 20260504190502 | 70 | 234 | 3.5 | 5.2 | 0.00 | 0.00 | 0.00 | 43 | 1024.7 |
| 20260504185958 | 69 | 245 | 5.2 | 7.0 | 0.00 | 0.00 | 0.00 | 42 | 1024.9 |
| 20260504185455 | 70 | 319 | 9.6 | 12.2 | 0.00 | 0.00 | 0.00 | 43 | 1024.9 |
| 20260504184952 | 69 | 216 | 6.1 | 8.7 | 0.00 | 0.00 | 0.00 | 43 | 1025.0 |
| 20260504184447 | 70 | 210 | 2.6 | 2.6 | 0.00 | 0.00 | 0.00 | 43 | 1025.0 |
| 20260504183943 | 69 | 259 | 6.1 | 7.0 | 0.00 | 0.00 | 0.00 | 43 | 1024.9 |
| 20260504183440 | 69 | 295 | 9.6 | 13.0 | 0.00 | 0.00 | 0.00 | 42 | 1025.0 |
| 20260504182938 | 69 | 234 | 3.5 | 5.2 | 0.00 | 0.00 | 0.00 | 45 | 1024.8 |
| 20260504182435 | 67 | 183 | 2.6 | 2.6 | 0.00 | 0.00 | 0.00 | 47 | 1025.0 |
| 20260504181933 | 69 | 304 | 4.3 | 6.1 | 0.00 | 0.00 | 0.00 | 45 | 1024.9 |
| 20260504181429 | 68 | 199 | 5.2 | 6.1 | 0.00 | 0.00 | 0.00 | 44 | 1024.9 |
| 20260504180928 | 68 | 278 | 6.1 | 7.8 | 0.00 | 0.00 | 0.00 | 45 | 1025.1 |
| 20260504180426 | 67 | 197 | 7.8 | 11.3 | 0.00 | 0.00 | 0.00 | 45 | 1025.1 |
| 20260504175924 | 67 | 239 | 4.3 | 7.0 | 0.00 | 0.00 | 0.00 | 46 | 1025.1 |
| 20260504175421 | 67 | 266 | 6.1 | 8.7 | 0.00 | 0.00 | 0.00 | 46 | 1024.9 |
| 20260504174919 | 67 | 237 | 6.1 | 11.3 | 0.00 | 0.00 | 0.00 | 46 | 1025.3 |
| 20260504174416 | 67 | 249 | 4.3 | 6.1 | 0.00 | 0.00 | 0.00 | 46 | 1025.2 |
| 20260504173913 | 67 | 218 | 3.5 | 4.3 | 0.00 | 0.00 | 0.00 | 49 | 1025.3 |
| 20260504173409 | 68 | 244 | 5.2 | 7.8 | 0.00 | 0.00 | 0.00 | 49 | 1025.4 |
| 20260504172907 | 67 | 205 | 6.1 | 7.0 | 0.00 | 0.00 | 0.00 | 46 | 1025.3 |
| 20260504172403 | 67 | 264 | 5.2 | 6.1 | 0.00 | 0.00 | 0.00 | 50 | 1025.1 |
| 20260504171859 | 66 | 280 | 9.6 | 11.3 | 0.00 | 0.00 | 0.00 | 48 | 1025.2 |
| 20260504171357 | 66 | 272 | 7.8 | 7.8 | 0.00 | 0.00 | 0.00 | 50 | 1025.2 |
| 20260504170854 | 65 | 251 | 8.7 | 12.2 | 0.00 | 0.00 | 0.00 | 49 | 1025.3 |
| 20260504170350 | 65 | 325 | 5.2 | 7.0 | 0.00 | 0.00 | 0.00 | 49 | 1025.5 |
| 20260504160309 | 62 | 174 | 4.3 | 5.2 | 0.00 | 0.00 | 0.00 | 52 | 1025.7 |
| 20260504150734 | 59 | 279 | 8.7 | 12.2 | 0.00 | 0.00 | 0.00 | 55 | 1026.5 |
| 20260504150231 | 59 | 248 | 4.3 | 4.3 | 0.00 | 0.00 | 0.00 | 57 | 1026.2 |
| 20260504141200 | 57 | 221 | 5.2 | 7.0 | 0.00 | 0.00 | 0.00 | 58 | 1026.5 |
| 20260504140657 | 56 | 184 | 1.7 | 1.7 | 0.00 | 0.00 | 0.00 | 58 | 1026.6 |
| 20260504140152 | 57 | 253 | 3.5 | 4.3 | 0.00 | 0.00 | 0.00 | 58 | 1026.4 |
| 20260504130621 | 53 | 207 | 4.3 | 5.2 | 0.00 | 0.00 | 0.00 | 60 | 1027.3 |
| 20260504130118 | 52 | 275 | 3.5 | 4.3 | 0.00 | 0.00 | 0.00 | 60 | 1027.5 |
| 20260504110509 | 47 | 239 | 2.6 | 4.3 | 0.00 | 0.00 | 0.00 | 64 | 1027.1 |
| 20260504100431 | 46 | 135 | 0.9 | 0.9 | 0.00 | 0.00 | 0.00 | 63 | 1027.0 |
| 20260504081824 | 47 | 224 | 2.6 | 2.6 | 0.00 | 0.00 | 0.00 | 62 | 1027.7 |
| 20260504081320 | 47 | 269 | 2.6 | 2.6 | 0.00 | 0.00 | 0.00 | 62 | 1027.8 |
| 20260504080816 | 47 | 214 | 1.7 | 1.7 | 0.00 | 0.00 | 0.00 | 63 | 1027.6 |
| 20260504080314 | 47 | 222 | 1.7 | 1.7 | 0.00 | 0.00 | 0.00 | 63 | 1028.0 |
| 20260504070241 | 47 | 225 | 1.7 | 1.7 | 0.00 | 0.00 | 0.00 | 62 | 1028.2 |
| 20260504060201 | 48 | 244 | 2.6 | 2.6 | 0.00 | 0.00 | 0.00 | 60 | 1028.3 |
| 20260504050629 | 48 | 237 | 1.7 | 1.7 | 0.00 | 0.00 | 0.00 | 60 | 1028.6 |
| 20260504050126 | 48 | 289 | 2.6 | 4.3 | 0.00 | 0.00 | 0.00 | 59 | 1028.4 |
| 20260504045623 | 48 | 239 | 1.7 | 1.7 | 0.00 | 0.00 | 0.00 | 59 | 1028.4 |
| 20260504045118 | 48 | 290 | 3.5 | 4.3 | 0.00 | 0.00 | 0.00 | 59 | 1028.2 |
| 20260504044616 | 49 | 264 | 3.5 | 5.2 | 0.00 | 0.00 | 0.00 | 58 | 1028.4 |
| 20260504044113 | 48 | 210 | 1.7 | 1.7 | 0.00 | 0.00 | 0.00 | 59 | 1028.4 |
| 20260504043610 | 48 | 224 | 2.6 | 2.6 | 0.00 | 0.00 | 0.00 | 58 | 1028.6 |
| 20260504043107 | 49 | 280 | 2.6 | 2.6 | 0.00 | 0.00 | 0.00 | 58 | 1028.5 |
| 20260504042604 | 48 | 251 | 1.7 | 1.7 | 0.00 | 0.00 | 0.00 | 58 | 1028.6 |
| 20260504042101 | 49 | 222 | 2.6 | 4.3 | 0.00 | 0.00 | 0.00 | 58 | 1028.4 |
| 20260504041556 | 49 | 278 | 2.6 | 2.6 | 0.00 | 0.00 | 0.00 | 58 | 1028.5 |
| 20260504041053 | 49 | 295 | 2.6 | 2.6 | 0.00 | 0.00 | 0.00 | 58 | 1028.6 |
| 20260504040550 | 49 | 214 | 1.7 | 2.6 | 0.00 | 0.00 | 0.00 | 58 | 1028.7 |
| 20260504040047 | 49 | 252 | 1.7 | 2.6 | 0.00 | 0.00 | 0.00 | 58 | 1028.7 |
| 20260504035544 | 49 | 290 | 2.6 | 2.6 | 0.00 | 0.00 | 0.00 | 57 | 1028.5 |
| 20260504035040 | 49 | 248 | 2.6 | 2.6 | 0.00 | 0.00 | 0.00 | 57 | 1028.6 |
| 20260504034538 | 49 | 269 | 2.6 | 2.6 | 0.00 | 0.00 | 0.00 | 57 | 1028.7 |
| 20260504034035 | 49 | 262 | 1.7 | 1.7 | 0.00 | 0.00 | 0.00 | 57 | 1028.3 |
| 20260504033533 | 49 | 218 | 1.7 | 1.7 | 0.00 | 0.00 | 0.00 | 57 | 1028.7 |
| 20260504033030 | 50 | 256 | 0.9 | 1.7 | 0.00 | 0.00 | 0.00 | 57 | 1028.7 |
| 20260504032527 | 49 | 276 | 1.7 | 1.7 | 0.00 | 0.00 | 0.00 | 57 | 1028.5 |
| 20260504032024 | 50 | 267 | 2.6 | 2.6 | 0.00 | 0.00 | 0.00 | 57 | 1028.8 |
| 20260504031521 | 50 | 269 | 1.7 | 1.7 | 0.00 | 0.00 | 0.00 | 57 | 1028.5 |
| 20260504031016 | 50 | 260 | 1.7 | 1.7 | 0.00 | 0.00 | 0.00 | 56 | 1028.7 |
| 20260504030514 | 50 | 258 | 1.7 | 2.6 | 0.00 | 0.00 | 0.00 | 55 | 1028.6 |
| 20260504030010 | 50 | 256 | 0.9 | 1.7 | 0.00 | 0.00 | 0.00 | 55 | 1028.8 |
| 20260504025507 | 50 | 272 | 1.7 | 1.7 | 0.00 | 0.00 | 0.00 | 55 | 1028.9 |
| 20260504025004 | 51 | 237 | 2.6 | 2.6 | 0.00 | 0.00 | 0.00 | 55 | 1028.6 |
| 20260504024502 | 51 | 271 | 4.3 | 5.2 | 0.00 | 0.00 | 0.00 | 54 | 1029.0 |
| 20260504023958 | 51 | 276 | 3.5 | 5.2 | 0.00 | 0.00 | 0.00 | 54 | 1028.9 |
| 20260504023455 | 51 | 279 | 1.7 | 1.7 | 0.00 | 0.00 | 0.00 | 53 | 1028.8 |
| 20260504022950 | 51 | 245 | 2.6 | 2.6 | 0.00 | 0.00 | 0.00 | 54 | 1028.9 |
| 20260504022446 | 51 | 248 | 1.7 | 1.7 | 0.00 | 0.00 | 0.00 | 54 | 1028.7 |
| 20260504021943 | 52 | 292 | 4.3 | 6.1 | 0.00 | 0.00 | 0.00 | 53 | 1029.1 |
| 20260504021441 | 51 | 339 | 3.5 | 5.2 | 0.00 | 0.00 | 0.00 | 52 | 1029.0 |
| 20260504020938 | 52 | 294 | 0.9 | 1.7 | 0.00 | 0.00 | 0.00 | 52 | 1028.9 |
| 20260504020434 | 52 | 237 | 3.5 | 5.2 | 0.00 | 0.00 | 0.00 | 51 | 1029.2 |
| 20260504015931 | 52 | 288 | 4.3 | 5.2 | 0.00 | 0.00 | 0.00 | 50 | 1029.0 |
| 20260504015427 | 52 | 273 | 7.0 | 7.8 | 0.00 | 0.00 | 0.00 | 51 | 1029.0 |
| 20260504014923 | 52 | 294 | 5.2 | 6.1 | 0.00 | 0.00 | 0.00 | 51 | 1029.1 |
| 20260504014419 | 51 | 270 | 3.5 | 5.2 | 0.00 | 0.00 | 0.00 | 52 | 1028.9 |
| 20260504013916 | 52 | 280 | 5.2 | 5.2 | 0.00 | 0.00 | 0.00 | 51 | 1028.8 |
| 20260504013415 | 52 | 302 | 4.3 | 5.2 | 0.00 | 0.00 | 0.00 | 51 | 1028.8 |
| 20260504012910 | 52 | 272 | 2.6 | 2.6 | 0.00 | 0.00 | 0.00 | 51 | 1028.9 |
| 20260504012409 | 52 | 289 | 5.2 | 7.8 | 0.00 | 0.00 | 0.00 | 51 | 1029.0 |
| 20260504011906 | 52 | 250 | 3.5 | 5.2 | 0.00 | 0.00 | 0.00 | 51 | 1028.9 |
| 20260504011403 | 52 | 237 | 4.3 | 6.1 | 0.00 | 0.00 | 0.00 | 52 | 1028.8 |
| 20260504010858 | 52 | 255 | 2.6 | 2.6 | 0.00 | 0.00 | 0.00 | 51 | 1028.8 |
| 20260504010355 | 52 | 219 | 3.5 | 4.3 | 0.00 | 0.00 | 0.00 | 51 | 1029.0 |
| 20260504005851 | 52 | 288 | 3.5 | 4.3 | 0.00 | 0.00 | 0.00 | 50 | 1029.0 |
| 20260504005348 | 52 | 311 | 4.3 | 5.2 | 0.00 | 0.00 | 0.00 | 50 | 1029.2 |
| 20260504004845 | 52 | 241 | 5.2 | 9.6 | 0.00 | 0.00 | 0.00 | 49 | 1029.0 |
| 20260504004343 | 52 | 258 | 4.3 | 6.1 | 0.00 | 0.00 | 0.00 | 48 | 1028.7 |
| 20260504003839 | 52 | 270 | 7.0 | 7.8 | 0.00 | 0.00 | 0.00 | 47 | 1029.1 |
| 20260504003336 | 52 | 283 | 5.2 | 6.1 | 0.00 | 0.00 | 0.00 | 47 | 1028.9 |
| 20260504002833 | 52 | 301 | 9.6 | 11.3 | 0.00 | 0.00 | 0.00 | 46 | 1029.0 |
| 20260504002330 | 52 | 270 | 5.2 | 7.0 | 0.00 | 0.00 | 0.00 | 47 | 1028.9 |
| 20260504001828 | 52 | 289 | 7.0 | 9.6 | 0.00 | 0.00 | 0.00 | 48 | 1028.5 |
| 20260504001325 | 52 | 4 | 4.3 | 6.1 | 0.00 | 0.00 | 0.00 | 48 | 1028.5 |
| 20260504000821 | 52 | 280 | 9.6 | 11.3 | 0.00 | 0.00 | 0.00 | 46 | 1028.7 |
| 20260504000318 | 52 | 281 | 7.8 | 9.6 | 0.00 | 0.00 | 0.00 | 47 | 1028.8 |
| 20260503235816 | 53 | 267 | 9.6 | 14.8 | 0.00 | 0.00 | 0.00 | 45 | 1029.0 |
| 20260503235314 | 53 | 283 | 11.3 | 15.6 | 0.00 | 0.00 | 0.00 | 44 | 1028.6 |
| 20260503234811 | 53 | 271 | 6.1 | 7.8 | 0.00 | 0.00 | 0.00 | 44 | 1028.4 |
| 20260503234308 | 53 | 267 | 4.3 | 5.2 | 0.00 | 0.00 | 0.00 | 44 | 1028.6 |
| 20260503233806 | 53 | 291 | 5.2 | 6.1 | 0.00 | 0.00 | 0.00 | 44 | 1028.7 |
| 20260503233301 | 53 | 257 | 9.6 | 14.8 | 0.00 | 0.00 | 0.00 | 42 | 1028.7 |
| 20260503232759 | 53 | 297 | 4.3 | 6.1 | 0.00 | 0.00 | 0.00 | 43 | 1028.4 |
| 20260503232256 | 54 | 303 | 6.1 | 7.0 | 0.00 | 0.00 | 0.00 | 43 | 1028.5 |
| 20260503231754 | 54 | 256 | 6.1 | 7.8 | 0.00 | 0.00 | 0.00 | 43 | 1028.5 |
| 20260503231251 | 54 | 275 | 7.8 | 9.6 | 0.00 | 0.00 | 0.00 | 42 | 1028.5 |
| 20260503230746 | 54 | 305 | 9.6 | 12.2 | 0.00 | 0.00 | 0.00 | 42 | 1028.4 |
| 20260503230244 | 54 | 129 | 2.6 | 4.3 | 0.00 | 0.00 | 0.00 | 43 | 1028.2 |
| 20260503225741 | 54 | 258 | 6.1 | 8.7 | 0.00 | 0.00 | 0.00 | 43 | 1028.4 |
| 20260503225241 | 54 | 44 | 5.2 | 7.8 | 0.00 | 0.00 | 0.00 | 42 | 1028.2 |
| 20260503224738 | 54 | 291 | 6.1 | 13.9 | 0.00 | 0.00 | 0.00 | 42 | 1028.2 |
| 20260503224236 | 54 | 256 | 6.1 | 7.0 | 0.00 | 0.00 | 0.00 | 41 | 1028.3 |
| 20260503223734 | 54 | 266 | 8.7 | 12.2 | 0.00 | 0.00 | 0.00 | 42 | 1028.1 |
| 20260503223231 | 54 | 306 | 6.1 | 8.7 | 0.00 | 0.00 | 0.00 | 40 | 1028.4 |
| 20260503222727 | 54 | 276 | 8.7 | 13.9 | 0.00 | 0.00 | 0.00 | 41 | 1028.3 |
| 20260503222225 | 54 | 245 | 13.0 | 14.8 | 0.00 | 0.00 | 0.00 | 41 | 1028.6 |
| 20260503221723 | 55 | 284 | 7.8 | 8.7 | 0.00 | 0.00 | 0.00 | 41 | 1028.1 |
| 20260503221221 | 55 | 281 | 3.5 | 5.2 | 0.00 | 0.00 | 0.00 | 42 | 1028.1 |
| 20260503220717 | 55 | 284 | 7.8 | 9.6 | 0.00 | 0.00 | 0.00 | 41 | 1028.3 |
| 20260503220214 | 55 | 272 | 3.5 | 5.2 | 0.00 | 0.00 | 0.00 | 43 | 1028.3 |
| 20260503215711 | 55 | 269 | 6.1 | 7.0 | 0.00 | 0.00 | 0.00 | 42 | 1027.8 |
| 20260503215208 | 55 | 270 | 7.0 | 9.6 | 0.00 | 0.00 | 0.00 | 42 | 1028.2 |
| 20260503214706 | 55 | 294 | 7.0 | 9.6 | 0.00 | 0.00 | 0.00 | 42 | 1028.1 |
| 20260503214201 | 55 | 271 | 6.1 | 7.0 | 0.00 | 0.00 | 0.00 | 41 | 1028.2 |
| 20260503213655 | 56 | 280 | 4.3 | 7.8 | 0.00 | 0.00 | 0.00 | 42 | 1028.1 |
| 20260503213152 | 55 | 216 | 3.5 | 4.3 | 0.00 | 0.00 | 0.00 | 42 | 1027.8 |
| 20260503212649 | 56 | 289 | 6.1 | 7.8 | 0.00 | 0.00 | 0.00 | 44 | 1028.1 |
| 20260503212146 | 55 | 282 | 2.6 | 4.3 | 0.00 | 0.00 | 0.00 | 45 | 1027.8 |
| 20260503211644 | 54 | 303 | 4.3 | 6.1 | 0.00 | 0.00 | 0.00 | 46 | 1028.1 |
| 20260503211139 | 53 | 281 | 4.3 | 5.2 | 0.00 | 0.00 | 0.00 | 47 | 1028.0 |
| 20260503210636 | 53 | 241 | 4.3 | 5.2 | 0.00 | 0.00 | 0.00 | 46 | 1028.1 |
| 20260503210133 | 53 | 323 | 2.6 | 2.6 | 0.00 | 0.00 | 0.00 | 49 | 1027.7 |
| 20260503205628 | 53 | 281 | 2.6 | 2.6 | 0.00 | 0.00 | 0.00 | 47 | 1027.8 |
| 20260503205125 | 54 | 337 | 5.2 | 6.1 | 0.00 | 0.00 | 0.00 | 45 | 1028.2 |
| 20260503204621 | 53 | 295 | 3.5 | 4.3 | 0.00 | 0.00 | 0.00 | 46 | 1028.3 |
| 20260503204119 | 54 | 279 | 4.3 | 5.2 | 0.00 | 0.00 | 0.00 | 47 | 1028.1 |
| 20260503203616 | 54 | 274 | 5.2 | 6.1 | 0.00 | 0.00 | 0.00 | 45 | 1028.2 |
| 20260503203114 | 54 | 8 | 1.7 | 2.6 | 0.00 | 0.00 | 0.00 | 45 | 1028.4 |
| 20260503202611 | 53 | 249 | 4.3 | 5.2 | 0.00 | 0.00 | 0.00 | 47 | 1028.4 |
| 20260503202109 | 53 | 293 | 6.1 | 8.7 | 0.00 | 0.00 | 0.00 | 45 | 1028.4 |